[Iaude] MPEC G108: 2024 GP1 [a=1.21,e=0.29,i=14.5,H=22.8]
    mpec at cfa.harvard.edu 
    mpec at cfa.harvard.edu
       
    Tue Apr  9 07:48:25 EDT 2024
    
    
  
M.P.E.C. 2024-G108                                Issued 2024 April 9, 11:47 UT
     The Minor Planet Electronic Circulars contain information on unusual
         minor planets, routine data on comets and natural satellites,
         and occasional editorial announcements.  They are published
    on behalf of Division F of the International Astronomical Union by the
          Minor Planet Center, Smithsonian Astrophysical Observatory,
                          Cambridge, MA 02138, U.S.A.
			  
             Prepared using the Tamkin Foundation Computer Network
                              MPC at CFA.HARVARD.EDU
            URL https://www.minorplanetcenter.net/    ISSN 1523-6714
                                    2024 GP1                                    
Observations:
     K24G01P*KC2024 04 07.29975 14 05 59.772+42 16 51.71         19.1 GVEG108W16
     K24G01P KC2024 04 07.30486 14 05 55.903+42 15 42.91         19.0 GVEG108W16
     K24G01P KC2024 04 07.30997 14 05 52.058+42 14 34.01         19.1 GVEG108W16
     K24G01P KC2024 04 07.31510 14 05 48.187+42 13 24.49         18.8 GVEG108W16
     K24G01P KC2024 04 07.31998 14 05 44.539+42 12 19.22         19.0 GVEG108W16
     K24G01P KC2024 04 07.32451 14 05 41.112+42 11 17.92         19.1 GVEG108W16
     K24G01P mC2024 04 07.43078414 04 25.115+41 47 32.24         18.91GVEG108I52
     K24G01P mC2024 04 07.43095414 04 24.974+41 47 29.69         19.07GVEG108I52
     K24G01P mC2024 04 07.43112414 04 24.841+41 47 27.31         18.84GVEG108I52
     K24G01P mC2024 04 07.43129814 04 24.701+41 47 25.01         19.06GVEG108I52
     K24G01P KB2024 04 07.44760 14 04 24.91 +41 43 03.6          18.6 GXEG108Q06
     K24G01P KB2024 04 07.45474 14 04 19.79 +41 41 29.8          19.2 GXEG108Q06
     K24G01P KB2024 04 07.46172 14 04 14.84 +41 39 57.2          20.3 GXEG108Q06
     K24G01P KC2024 04 07.78251614 00 35.46 +40 27 46.3          18.7 GXEG108L18
     K24G01P KC2024 04 07.79197714 00 28.98 +40 25 40.7          18.7 GXEG108L18
     K24G01P KC2024 04 07.80138014 00 22.69 +40 23 35.6          18.7 GXEG108L18
     K24G01P KC2024 04 07.81583 14 00 13.10 +40 20 18.1          18.6 GXEG108G02
     K24G01P KC2024 04 07.82086 14 00 09.66 +40 19 11.3          18.8 GXEG108G02
     K24G01P KC2024 04 07.82629 14 00 05.95 +40 17 59.9          18.6 GXEG108G02
     K24G01P KB2024 04 07.84847813 59 52.32 +40 12 57.5          19.2 GXEG108I93
     K24G01P KB2024 04 07.85077513 59 50.80 +40 12 27.7          19.2 GXEG108I93
     K24G01P KB2024 04 07.85294413 59 49.33 +40 11 59.5          19.2 GXEG108I93
     K24G01P KC2024 04 07.85764513 59 46.33 +40 10 57.7                XEG108958
     K24G01P KC2024 04 07.86237913 59 43.12 +40 09 54.2          18.7 GXEG108958
     K24G01P KC2024 04 07.86626313 59 40.45 +40 09 03.5          18.8 GXEG108958
     K24G01P KC2024 04 07.87440313 59 34.099+40 07 05.63         19.1 GVEG108Z80
     K24G01P KC2024 04 07.88708713 59 25.349+40 04 17.04         19.1 GVEG108Z80
     K24G01P KC2024 04 07.90186113 59 14.77 +40 01 16.9          19.3 GVEG108L01
     K24G01P KC2024 04 07.90334213 59 13.76 +40 00 57.1          19.5 GVEG108L01
     K24G01P KC2024 04 07.90482413 59 12.72 +40 00 37.0          19.5 GVEG108L01
     K24G01P KC2024 04 07.90613213 59 11.82 +40 00 19.5          19.3 GVEG108L01
     K24G01P pC2024 04 07.90781713 59 10.66 +39 59 57.5          19.4 GVEG108L01
     K24G01P 1C2024 04 07.92514 13 58 55.99 +39 56 11.1          18.9 GVEG108C40
     K24G01P 1C2024 04 07.93045 13 58 52.22 +39 54 59.3          18.8 GVEG108C40
     K24G01P 1C2024 04 07.93503 13 58 49.05 +39 53 57.1          18.9 GVEG108C40
     K24G01P 1C2024 04 07.94895 13 58 39.37 +39 50 49.0          18.5 GVEG108C40
     K24G01P 1C2024 04 07.95411 13 58 35.86 +39 49 38.7          19.2 GVEG108C40
     K24G01P 1C2024 04 07.95927 13 58 32.23 +39 48 28.4          19.0 GVEG108C40
     K24G01P 1C2024 04 07.98149 13 58 16.89 +39 43 25.0          18.8 GVEG108C40
     K24G01P 1C2024 04 07.98668 13 58 13.25 +39 42 14.3          19.2 GVEG108C40
     K24G01P 1C2024 04 07.99186 13 58 09.68 +39 41 03.3          18.6 GVEG108C40
     K24G01P 1C2024 04 08.04085 13 57 36.34 +39 29 51.9          19.2 GVEG108C40
     K24G01P 1C2024 04 08.04862 13 57 31.02 +39 28 04.8          19.4 GVEG108C40
     K24G01P 1C2024 04 08.05380 13 57 27.62 +39 26 53.6          19.0 GVEG108C40
     K24G01P KC2024 04 08.16336613 56 26.61 +39 02 19.5          19.0 GVEG108H21
     K24G01P KC2024 04 08.16529513 56 25.32 +39 01 53.8          19.0 GVEG108H21
     K24G01P KC2024 04 08.17108513 56 21.44 +39 00 36.6          19.1 GVEG108H21
     K24G01P KC2024 04 08.17301413 56 20.14 +39 00 10.7          18.7 GVEG108H21
     K24G01P KC2024 04 08.17442913 56 19.20 +38 59 51.8          19.0 GVEG108H21
     K24G01P KB2024 04 08.74244213 50 30.74 +36 50 45.0          18.7 GXEG108L76
     K24G01P KB2024 04 08.74762213 50 27.50 +36 49 34.9          18.8 GXEG108L76
     K24G01P KB2024 04 08.75280213 50 24.33 +36 48 25.3          18.8 GXEG108L76
     K24G01P KB2024 04 08.84716 13 49 28.54 +36 27 07.0          18.3 GXEG108G15
     K24G01P KB2024 04 08.85596 13 49 23.15 +36 25 09.5          18.7 GXEG108G15
     K24G01P KC2024 04 08.85768 13 49 21.98 +36 24 49.0          19.2 GVEG108104
     K24G01P 1C2024 04 08.85770 13 49 21.38 +36 24 39.3          20.3 VXEG108033
     K24G01P 1C2024 04 08.85793 13 49 21.18 +36 24 36.4          20.2 VXEG108033
     K24G01P 1C2024 04 08.85816 13 49 21.05 +36 24 33.0          20.2 VXEG108033
     K24G01P 1C2024 04 08.85838 13 49 20.89 +36 24 29.8          19.9 VXEG108033
     K24G01P 1C2024 04 08.85870 13 49 20.70 +36 24 25.2          19.7 VXEG108033
     K24G01P 1C2024 04 08.85899 13 49 20.50 +36 24 21.1          19.4 VXEG108033
     K24G01P KC2024 04 08.86347 13 49 18.43 +36 23 31.9                VEG108104
     K24G01P KC2024 04 08.86927 13 49 14.88 +36 22 14.3          19.4 GVEG108104
     K24G01P 1C2024 04 08.87648 13 49 07.82 +36 20 47.1          18.8 GVEG108C40
     K24G01P 1C2024 04 08.88166 13 49 04.51 +36 19 36.1          18.8 GVEG108C40
     K24G01P 1C2024 04 08.88684 13 49 01.27 +36 18 25.8          18.8 GVEG108C40
     K24G01P KC2024 04 08.90079213 48 55.507+36 15 11.07         18.8 GVEG108D63
     K24G01P KC2024 04 08.90766213 48 51.311+36 13 38.74         18.5 GVEG108D63
     K24G01P KC2024 04 08.91450213 48 47.070+36 12 06.52         19.1 GVEG108D63
     K24G01P KB2024 04 09.46057 13 43 41.22 +34 08 22.7          18.1 GXEG108Q06
     K24G01P KB2024 04 09.46526 13 43 38.56 +34 07 21.6          18.1 GXEG108Q06
     K24G01P KB2024 04 09.46995 13 43 35.92 +34 06 18.7          18.5 GXEG108Q06
Observer details:
033 Karl Schwarzschild Observatory, Tautenburg.  Observers S. Melnikov, C.
    Hogner, F. Ludwig, M. Hartmann, B. Stecklum.  Measurer B. Stecklum.
    1.34-m f/3 Schmidt + CCD.
104 San Marcello Pistoiese.  Observers P. Bacci, M. Maestripieri.  Measurer P.
    Bacci.  0.60-m f/4.0 reflector + CCD.
958 Observatoire de Dax.  Observers P. Dupouy, J. B. de Vanssay.  Measurer P.
    Dupouy.  0.43-m f/2.7 Reflector + CCD.
C40 Kuban State University Astrophysical Observatory.  Observers A. Ivanov, A.
    Barcov, V. Ivanov, V. Lysenko, N. Yakovenko, N. Ivanova, N. Gorbunov, G.
    Kurbatov, P. Shchukin, V. Roshchupko.  Measurer A. Ivanov.  0.51-m f/8
    reflector + CCD.
D63 G. Pascoli Observatory, Castelvecchio Pascoli (since June 2023).  Observer
    R. Bacci.  0.41-m f/3.75 Reflector + CCD.
G02 KYSUCE Observatory, Kysucke Nove Mesto.  Observer M. Urbanik.  0.40-m
    f/6.8 Corrected Dall-Kirkham + CCD.
G15 Magroforte Observatory, Alessandria.  Observer A. De Pieri.  0.23-m f/6.7
    SC + CMO.
H21 Astronomical Research Observatory, Westfield.  Observer R. Holmes.
    Measurers T. Linder, R. Holmes, L. Horn.  0.76-m f/3.0 astrograph + CCD.
I52 Steward Observatory, Mt. Lemmon Station.  Observer J. K. Hogan.  Measurers
    T. Beuden, V. F. Carvajal, D. Fay, J. B. Fazekas, D. C. Fuls, A. R. Gibbs,
    A. D. Grauer, H. Groeller, J. K. Hogan, R. A. Kowalski, S. M. Larson, G.
    J. Leonard, D. Rankin, R. L. Seaman, F. C. Shelly, K. W. Wierzchos.  1.0-m
    prime focus + CCD.
I93 St Pardon de Conques.  Observer F. Losse.  0.40-m f/3.7 reflector + CCD.
L01 Visnjan Observatory, Tican.  Observer K. Korlevic.  1.0-m f/2.9 reflector
    + CCD.
L18 QOS Observatory, Zalistsi.  Observer B. O. Basiev.  Measurer A. M.
    Kozhukhov.  0.50-m f/3.8 reflector + CCD.
L76 Nomad Observatory, Kochevanchik.  Observer E. Romas.  0.25-m f/4 Newtonian
    + CMO.
Q06 Tarui Observatory, Tarui.  Observer H. Watanabe.  0.35-m f/1.9 Schmidt-
    Cassegrain + CMO.
W16 Pleasant Groves Observatory.  Observer M. Holbrook.  0.36-m f/2.2
    reflector + CCD.
Z80 Northolt Branch Observatory.  Observer G. Wells.  0.25-m f/8.0 Ritchey-
    Chretien + CCD.
Orbital elements:
2024 GP1                                                 Earth MOID = 0.0535 AU
Epoch 2024 Mar. 31.0 TT = JDT 2460400.5                 Veres                   
M  44.10917              (2000.0)            P               Q                  
n   0.74407172     Peri.   84.69808     -0.41361462     -0.90144317             
a   1.2061265      Node    30.75444     +0.70457560     -0.40579387             
e   0.2935677      Incl.   14.46851     +0.57662481     -0.15076981             
P   1.32           H   22.85          G   0.15           U   7                  
Residuals in seconds of arc
240407 W16  0.0   0.3+    240407 958  0.5+  0.3+    240408 H21  0.1+  0.0
240407 W16  0.2-  0.2+    240407 Z80  0.8+  0.8+    240408 L76  0.7+  1.1+
240407 W16  0.2-  0.1-    240407 Z80  0.9-  0.9+    240408 L76  0.0   0.2+
240407 W16  0.2-  0.5-    240407 L01  0.0   0.1+    240408 L76  0.1+  0.1-
240407 W16  0.1-  0.1-    240407 L01  0.1+  0.1+    240408 G15  0.8+  0.6-
mailing list